Regional Weather Roundup
Issued by NWS

Home | Current Version | Previous Version | Text Only | Print | Product List | Glossary Off
Versions: 1 2 3 4 5 6 7 8 9 10 11 12 13 14 15 16 17 18 19 20 21 22 23 24 25 26 27 28 29 30 31 32 33 34 35 36 37 38 39 40 41 42 43 44 45 46 47 48 49 50

000
ASUS43 KMKX 210800
RWRWI

WISCONSIN REGIONAL WEATHER ROUNDUP
NATIONAL WEATHER SERVICE MILWAUKEE/SULLIVAN WI
300 AM CDT MON MAY 21 2018

NOTE: "FAIR" INDICATES FEW OR NO CLOUDS BELOW 12,000 FEET WITH NO
SIGNIFICANT WEATHER AND/OR OBSTRUCTIONS TO VISIBILITY.

WIZ001-002-006>008-014>016-023>028-210900-
NORTHWEST WISCONSIN

CITY           SKY/WX    TMP DP  RH WIND       PRES   REMARKS
SUPERIOR ARPT  FAIR      33  33 100 CALM      30.17F
ASHLAND        FAIR      34  32  92 SW5       30.18S WCI  30
HAYWARD        FAIR      38  34  85 CALM      30.18S
SIREN            N/A     38  34  84 CALM      30.16S
CUMBERLAND     FAIR      45  36  70 CALM      30.18R
RICE LAKE      FAIR      44  41  90 CALM      30.20R
CHETEK         FAIR      43  40  89 E5        30.19R
LADYSMITH      FAIR      44  36  74 CALM      30.21S
EAU CLAIRE     NOT AVBL
MENOMONIE      CLOUDY    54  46  76 E6        30.16F
NEW RICHMOND   CLOUDY    52  41  66 E5        30.15F
OSCEOLA        FAIR      47  37  67 E3        30.18S
$$

WIZ003>005-009-010-017-018-210900-
NORTH CENTRAL WISCONSIN

CITY           SKY/WX    TMP DP  RH WIND       PRES   REMARKS
MANITOWISH WTR FAIR      37  37 100 CALM      30.21S
ARBOR VITAE    FAIR      42  36  81 CALM      30.21S
WOODRUFF       FAIR      42  36  81 CALM      30.21S
RHINELANDER    FAIR      39  33  79 CALM      30.23R
EAGLE RIVER    FAIR      36  33  90 CALM      30.21S
LAND O LAKES   FAIR      36  35  96 CALM      30.23S
PHILLIPS       FAIR      36  34  90 CALM      30.20S
TOMAHAWK       FAIR      35  32  89 CALM      30.22R
MEDFORD        FAIR      40  35  81 NE5       30.20S
MERRILL        FAIR      37  35  90 CALM      30.22R
$$

WIZ029-030-035-036-043>047-210900-
CENTRAL WISCONSIN

CITY           SKY/WX    TMP DP  RH WIND       PRES   REMARKS
WAUSAU         FAIR      44  34  67 CALM      30.19S
MOSINEE        FAIR      45  32  61 E3        30.21R
MARSHFIELD     FAIR      46  36  68 E6        30.18S
STEVENS POINT  NOT AVBL
WAUPACA        FAIR      41  37  86 CALM      30.20S
WAUTOMA        FAIR      42  40  92 CALM        N/A
WISC RAPIDS    MOCLDY    44  35  70 CALM      30.20S
CAMP DOUGLAS   NOT AVBL
$$

WIZ011>013-019>022-031-037>040-048>050-210900-
NORTHEAST WISCONSIN

CITY           SKY/WX    TMP DP  RH WIND       PRES   REMARKS
ANTIGO         FAIR      37  32  82 NE3       30.22R
SHAWANO        FAIR      41  38  88 CALM      30.21S
OCONTO         FAIR      35  33  93 CALM      30.22R
STURGEON BAY   FAIR      41  32  70 CALM      30.22S
GREEN BAY      FAIR      40  36  86 CALM      30.21S
MANITOWOC      FAIR      40  35  83 N5        30.21S
APPLETON       FAIR      46  23  39 NE5       30.19S
CLINTONVILLE   FAIR      42  36  78 NE3       30.21S
OSHKOSH        FAIR      48  35  60 E3        30.18F
$$

WIZ032>034-041-042-053>061-210900-
SOUTHWEST WISCONSIN

CITY           SKY/WX    TMP DP  RH WIND       PRES   REMARKS
LA CROSSE      CLOUDY    58  49  72 SE5       30.15S
SPARTA         CLOUDY    48  47  96 CALM      30.18S
VIROQUA        CLOUDY    52  51  96 E5        30.16S
BOSCOBEL       MOCLDY    55  49  80 CALM      30.15F
PRAIRIE DU CHI MOCLDY    56  50  79 E6        30.13F
PLATTEVILLE    CLOUDY    52  47  85 E9        30.14F
$$

WIZ056-057-062-063-064-067-068-210900-
SOUTH CENTRAL WISCONSIN

CITY           SKY/WX    TMP DP  RH WIND       PRES   REMARKS
REEDSBURG      CLOUDY    51  46  81 NE5       30.16F
BARABOO/DELLS  CLOUDY    49  43  80 CALM      30.17S
LONE ROCK      NOT AVBL
MINERAL POINT  MOCLDY    52  45  76 E7        30.15S
MADISON        CLOUDY    51  40  65 E5        30.16S
MIDDLETON      CLOUDY    53  40  61 E7        30.17S
WATERTOWN      CLOUDY    47  44  87 E3        30.17F
MONROE         CLOUDY    50  43  76 NE8       30.14F
JANESVILLE     MOCLDY    50  41  71 NE5       30.15F
$$

WIZ051-052-058>065-066-070>072-210900-
SOUTHEAST WISCONSIN

CITY           SKY/WX    TMP DP  RH WIND       PRES   REMARKS
MILWAUKEE      MOCLDY    47  41  80 N5        30.17F
WAUKESHA       MOCLDY    43  36  75 CALM      30.19S
MILWAUKEE/TIMM FAIR      43  36  75 CALM      30.19F
RACINE         CLOUDY    45  41  86 N8        30.18F
BURLINGTON     MOCLDY    45  40  82 CALM      30.16F
KENOSHA        CLOUDY    46  41  82 CALM      30.17R
FOND DU LAC    FAIR      45  35  68 NE3       30.19S
SHEBOYGAN      FAIR      41  33  73 NE5       30.19S
WEST BEND      FAIR      41  39  93 CALM      30.19F
JUNEAU         FAIR      46  35  66 CALM      30.20R
$$

LSZ147-162-210900-
LAKE SUPERIOR

STATION/POSITION TIME  TEMP    WIND        PRES    WAVE
                       AIR SEA DIR/SP/G            HT/PER
                 (UTC) (F)     (DEG/KT/KT) (MB)    (FT/S)
W MID LAKE BUOY  0650   42 36  200/  4/  4 1022.4F   0
DEVILS ISLAND    0700   54     120/  4/  5 1022.2S
SAXON HARBOR     0740   40     190/  3/  4 1021.0S
$$

LMZ867-665-643>646-210900-
LAKE MICHIGAN

STATION/POSITION TIME  TEMP    WIND        PRES    WAVE
                       AIR SEA DIR/SP/G            HT/PER
                 (UTC) (F)     (DEG/KT/KT) (MB)    (FT/S)
NORTHPORT PIER   0740   43                 1023.4S
KEWAUNEE LAKESHO 0730   47      40/  4/  6 1022.2F
SHEBOYGAN LAKESH 0700   47      10/  9/ 10 1022.8F
PORT WASHINGTON  0730   47     330/  2/  4 1023.0F
MILWAUKEE LAKESH 0730   47      10/  5/  7   N/A
KENOSHA   LAKESH 0700   47                 1021.3
$$

TC  - TEMPERATURE IN CELSIUS
VSB - VISIBILITY IN STATUTE MILES
WCI - WIND CHILL INDEX
HX  - HEAT INDEX




USA.gov is the U.S. government's official web portal to all federal, state and local government web resources and services.